Weather in Maryevka

Russia / Orenburg Oblast     52°14′42″N   55°16′44″E
temp.,
°C
wind,
m/s
gust,
m/s
humid.,
%
clouds,
%
prec.,
mm/h
press.,
hPa
HPBL,
m
27 february, sat
sat2723:00−17se6119698 0.1 1020320
02:00−16se71395100 0.1 1017402
05:00−15sse91594100 0.4 1013467
08:00−13sse91695100 4.1 1008569
11:00−9sse91494100 6.1 1005577
14:00−5sse61096100 1.2 1003437
17:00−2s3597100 2.3 1002249
20:000sw3898100 0.3 1001372
28 february, sun
sun2823:000ssw5998100 1.0 1001487
02:00−1sw4896100 0.5 999346
05:00−2ssw41098100 0.8 999333
08:00−2sw4997100 0.6 999326
11:00−2wsw5991100 1.0 1000421
14:00−4wsw579378 0.0 1001364
17:00−7w589389 0.3 1004409
20:00−10wnw4894100 0.3 1008298
1 march, mon
mon123:00−12w359592 0.4 1010109
02:00−13w349598 0.1 101282
05:00−14wnw349596 0.2 1014102
08:00−15wnw339699 0.2 101558
11:00−14wnw349397 0.3 1017224
14:00−12wnw339091 0.1 1018344
17:00−12wnw349295 0.1 1019337
20:00−16wnw349475 0.0 102173
2 march, tue
tue223:00−18nw349681 0.1 102260
02:00−21nw239995 0.0 102220
05:00−23wnw229791 0.1 102220
08:00−24wnw229828 0.0 102220
11:00−20ssw239635 0.0 1021130
14:00−18ssw469446 0.0 1020272
17:00−17ssw599569 0.0 1018348
20:00−17s61096100 0.0 1016335
3 march, wed
wed323:00−15s61095100 0.5 1014373
02:00−12sse61195100 0.8 1010398
05:00−6s61295100 1.8 1007588
08:00−3s71396100 1.5 1005712
11:00−2ssw81296100 2.8 1003797
14:00−1ssw71095100 0.8 1002768
17:00−1sw6996100 1.2 1002609
20:00−3wsw489799 0.4 1002285